Starlink 34552

operational
NORAD ID: 64731 Int'l Des: 2025-144 Owner: SPXS Country: US Constellation: starlink
LEOCIRCULAR

About Starlink 34552

Description loading...

Live Position

Loading 3D Globe...

Upcoming Passes

Altitude History

Altitude vs Time

uPlot chart will show altitude changes over time

Two-Line Element Set

1 64731U 25144H 26063.39159183 .00042395 00000-0 14334-2 0 9993
2 64731 53.1607 205.4372 0000861 98.4819 261.6280 15.30245187 38903
Epoch: Mar 4, 2026 • Age: 23 hours

Current Status

Altitude 480.8 km
Velocity 7.63 km/s
Sub-Earth Point -20.02°S, 33.31°E
Launch Date Jul 2, 2025
Age 0.6 years
Type internet

Technical Details

Classification Payload
Mass 575.00 kg
Dry Mass 530.00 kg
Total Mass 575.00 kg
Length 0.30 m
Diameter 4.10 m
Span 29.00 m
Shape Box + pan
Manufacturer SPXS
Bus Type Starlink V2MO
Phase Status In Orbit
Owner/State SPXS/US

Large Constellations

Loading constellations...